EW1015 Weather Reports


Display with metric or nautical units.
time (UTC)temp
F
wind
direction
speed
MPH
gust
MPH
rain 1hr
in
rain 24hr
in
rain mn
in
humidity
%
barometer
mb
20260905160049 71 24 4.0 12.0 0.00 0.00 0.00 46 1014.9
20260905154545 71 317 7.0 12.0 0.00 0.00 0.00 46 1015.0
20260905153040 70 360 4.0 15.0 0.00 0.00 0.00 37 1015.0
20260905151536 71 44 4.0 12.0 0.00 0.00 0.00 25 1014.9
20260905150034 68 344 4.0 11.0 0.00 0.00 0.00 33 1015.0
20260905144531 69 47 6.0 11.0 0.00 0.00 0.00 24 1015.0
20260905143026 68 343 5.0 10.0 0.00 0.00 0.00 18 1015.0
20260905141522 68 311 3.0 12.0 0.00 0.00 0.00 9 1015.0
20260905140017 68 355 2.0 12.0 0.00 0.00 0.00 100 1015.0
20260905134513 68 321 3.0 9.0 0.00 0.00 0.00 100 1015.0
20260905133006 67 294 4.0 9.0 0.00 0.00 0.00 100 1014.9
20260905131502 66 28 4.0 9.0 0.00 0.00 0.00 100 1015.0
20260905130058 66 346 4.0 8.0 0.00 0.00 0.00 100 1015.0
20260905124600 65 293 2.0 7.0 0.00 0.00 0.00 100 1015.3
20260905123049 64 346 2.0 4.0 0.00 0.00 0.00 100 1015.2
20260905121544 64 303 2.0 4.0 0.00 0.00 0.00 100 1015.1
20260905120040 62 292 1.0 4.0 0.00 0.00 0.00 100 1015.0
20260905114535 61 317 2.0 3.0 0.00 0.00 0.00 100 1014.9
20260905113032 60 319 1.0 3.0 0.00 0.00 0.00 100 1014.6
20260905111527 59 331 0.0 1.0 0.00 0.00 0.00 100 1014.5
20260905110023 58 331 0.0 1.0 0.00 0.00 0.00 100 1014.7
20260905104519 58 326 2.0 3.0 0.00 0.00 0.00 100 1014.7
20260905103014 57 329 0.0 0.0 0.00 0.00 0.00 100 1014.3
20260905101509 57 329 0.0 2.0 0.00 0.00 0.00 100 1014.0
20260905100005 57 330 0.0 1.0 0.00 0.00 0.00 100 1013.9
20260905094602 57 330 0.0 1.0 0.00 0.00 0.00 100 1014.0
20260905093056 58 330 0.0 1.0 0.00 0.00 0.00 100 1014.0
20260905091608 58 330 0.0 0.0 0.00 0.00 0.00 100 1013.7
20260905090047 59 327 0.0 1.0 0.00 0.00 0.00 100 1013.7
20260905084604 59 327 0.0 1.0 0.00 0.00 0.00 100 1013.7
20260905083038 59 327 0.0 0.0 0.00 0.00 0.00 100 1013.7
20260905081534 60 327 0.0 0.0 0.00 0.00 0.00 100 1013.9
20260905080038 60 327 0.0 0.0 0.00 0.00 0.00 100 1013.9
20260905074525 61 327 0.0 1.0 0.00 0.00 0.00 100 1014.1
20260905073022 62 327 0.0 1.0 0.00 0.00 0.00 100 1013.9
20260905071516 63 327 0.0 2.0 0.00 0.00 0.00 100 1014.0
20260905070026 64 328 0.0 2.0 0.00 0.00 0.00 100 1014.1
20260905064507 64 327 0.0 2.0 0.00 0.00 0.00 100 1014.2
20260905063002 63 327 0.0 1.0 0.00 0.00 0.00 100 1014.3
20260905061614 63 327 0.0 2.0 0.00 0.00 0.00 100 1014.4
20260905060055 63 325 2.0 4.0 0.00 0.00 0.00 100 1014.4
20260905054557 62 346 1.0 3.0 0.00 0.00 0.00 100 1014.4
20260905053047 62 351 0.0 0.0 0.00 0.00 0.00 100 1014.3
20260905051544 63 351 0.0 2.0 0.00 0.00 0.00 100 1014.4
20260905050044 63 351 0.0 2.0 0.00 0.00 0.00 100 1014.5
20260905044532 64 355 0.0 2.0 0.00 0.00 0.00 100 1014.5
20260905043029 65 355 0.0 2.0 0.00 0.00 0.00 100 1014.4
20260905041523 65 355 0.0 2.0 0.00 0.00 0.00 100 1014.4
20260905040022 65 360 0.0 2.0 0.00 0.00 0.00 100 1014.5
20260905034514 65 360 0.0 2.0 0.00 0.00 0.00 100 1014.5
20260905033018 66 5 0.0 1.0 0.00 0.00 0.00 100 1014.5
20260905031508 66 5 0.0 2.0 0.00 0.00 0.00 100 1014.5
20260905030002 65 10 1.0 2.0 0.00 0.00 0.00 100 1014.4
20260905024600 65 5 0.0 2.0 0.00 0.05 0.00 100 1014.3
20260905023052 65 5 0.0 0.0 0.00 0.05 0.00 100 1014.5
20260905021548 65 9 0.0 1.0 0.00 0.05 0.00 100 1014.5
20260905020046 66 9 0.0 0.0 0.00 0.05 0.00 100 1014.3
20260905014539 67 9 0.0 0.0 0.00 0.19 0.00 100 1014.3
20260905013034 67 9 0.0 0.0 0.00 0.19 0.00 100 1014.4
20260905011533 67 5 0.0 0.0 0.00 0.19 0.00 100 1014.5
20260905010025 67 5 0.0 1.0 0.00 0.19 0.00 100 1014.6
20260905004521 68 5 0.0 0.0 0.00 0.19 0.00 100 1014.5
20260905003017 67 5 0.0 0.0 0.00 0.19 0.00 100 1014.6
20260905001514 68 5 0.0 1.0 0.00 0.19 0.00 100 1014.4
20260905000008 69 19 0.0 1.0 0.00 0.19 0.00 10 1014.0
20260904234507 69 5 0.0 1.0 0.00 0.19 0.00 23 1014.0
20260904233017 69 360 0.0 1.0 0.00 0.19 0.00 22 1013.9
20260904231513 70 360 0.0 1.0 0.00 0.19 0.00 31 1013.8
20260904230009 71 360 0.0 2.0 0.00 0.19 0.00 34 1013.8
20260904224505 71 355 1.0 4.0 0.00 0.19 0.00 49 1013.6
20260904223100 71 33 2.0 6.0 0.00 0.19 0.00 50 1013.5
20260904221556 72 348 2.0 5.0 0.00 0.19 0.00 45 1013.4
20260904220052 72 30 1.0 4.0 0.00 0.19 0.00 37 1013.3
20260904214553 73 14 1.0 6.0 0.00 0.19 0.00 41 1013.2
20260904213043 74 335 3.0 6.0 0.00 0.19 0.00 49 1013.4
20260904211539 74 30 3.0 9.0 0.00 0.19 0.00 55 1013.4
20260904210035 75 288 3.0 5.0 0.00 0.19 0.00 50 1013.5
20260904204530 74 317 2.0 9.0 0.00 0.19 0.00 51 1013.5
20260904203033 76 331 4.0 11.0 0.00 0.19 0.00 56 1013.5
20260904201521 76 316 4.0 10.0 0.00 0.19 0.00 51 1013.6
20260904200017 76 349 4.0 9.0 0.00 0.19 0.00 56 1013.9
20260904194512 76 46 4.0 11.0 0.00 0.19 0.00 53 1014.0
20260904193009 75 24 2.0 10.0 0.00 0.19 0.00 51 1014.3
20260904191503 76 304 4.0 12.0 0.00 0.19 0.00 58 1014.2
20260904190059 76 307 6.0 10.0 0.00 0.19 0.00 57 1014.4
20260904184559 76 324 3.0 10.0 0.00 0.19 0.00 55 1014.5
20260904183050 75 305 6.0 10.0 0.00 0.19 0.00 55 1014.6
20260904181547 74 319 7.0 12.0 0.00 0.19 0.00 54 1014.8
20260904180041 76 289 5.0 10.0 0.00 0.19 0.00 53 1014.7
20260904174537 75 309 6.0 12.0 0.00 0.19 0.00 54 1015.0
20260904173034 74 289 4.0 10.0 0.00 0.19 0.00 52 1015.1
20260904171533 74 323 5.0 12.0 0.00 0.19 0.00 57 1015.4
20260904170023 74 319 5.0 9.0 0.00 0.19 0.00 45 1015.5
20260904164518 74 331 4.0 8.0 0.00 0.19 0.00 41 1015.4
20260904163013 74 323 1.0 9.0 0.00 0.19 0.00 40 1015.4
20260904161509 74 5 3.0 8.0 0.00 0.19 0.00 41 1015.5